Home > Weather > Nouadhibou > Past weeks

Flag for Mauritania Past Weather in Nouadhibou, Mauritania — Yesterday and Last 2 Weeks

Now
79 °F

Clear.


Feels Like: 81 °F
Forecast: 72 / 88 °F
Wind: 18 mph from Northeast

Location: Nouadhibou Airport

Current Time: Aug 29, 2016 at 9:12:17 AM

Latest Report: Aug 29, 2016 at 8:00 AM


Visibility: 4 mi

Pressure: 29.83 "Hg

Humidity: 65%

Dew Point: 66 °F

Location of NouadhibouLocation

Past Weather in Nouadhibou — Graph

°F

Nouadhibou Temperature Yesterday

Maximum temperature yesterday: 86 °F (at 1:00 PM)
Minimum temperature yesterday: 72 °F (at 7:00 AM)
Average temperature yesterday: 77 °F

High & Low Weather Summary for the Past Weeks

 TemperatureHumidityPressure
High91 °F (Aug 22, 2:00 PM)100% (Aug 17, 10:00 PM)30.01 "Hg (Aug 17, 10:00 PM)
Low66 °F (Aug 25, 5:00 AM)49% (Aug 22, 2:00 PM)29.74 "Hg (Aug 25, 4:00 PM)
Average74 °F77%29.88 "Hg
* Reported Aug 14 8:00 AM — Aug 29 8:00 AM, Nouadhibou, Weather by CustomWeather, © 2016

Note: Actual official high and low records may vary slightly from our data, if they occured in-between our weather recording intervals... More about our weather records

Advertising

Nouadhibou Weather History for the Previous 24 Hours

Scroll right to see more
 ConditionsComfort  
Time TempWeatherWind HumidityBarometerVisibility
8:00 AM
Mon, Aug 29
79 °FClear.18 mph65%29.83 "Hg4 mi
7:00 AM77 °FSandstorm.18 mph65%29.80 "Hg4 mi
6:00 AM79 °FSandstorm.14 mph65%29.80 "Hg4 mi
5:00 AM77 °FSandstorm.12 mph65%29.80 "Hg4 mi
4:00 AM79 °FClear.18 mph65%29.80 "Hg4 mi
3:00 AM79 °FClear.6 mph65%29.80 "Hg4 mi
2:00 AM81 °FClear.7 mph62%29.83 "Hg4 mi
1:00 AM81 °FClear.7 mph62%29.86 "Hg4 mi
12:00 AM73 °FClear.12 mph78%29.89 "Hg4 mi
11:00 PM
Sun, Aug 28
73 °FSandstorm.17 mph78%29.89 "Hg4 mi
10:00 PM73 °FSandstorm.18 mph83%29.89 "Hg4 mi
9:00 PM73 °FSandstorm.18 mph83%29.86 "Hg4 mi
8:00 PM73 °FSandstorm.21 mph83%29.86 "Hg4 mi
7:00 PM75 °FSandstorm.21 mph78%29.86 "Hg4 mi
6:00 PM79 °FSandstorm.20 mph70%29.83 "Hg4 mi
5:00 PM77 °FSandstorm.22 mph74%29.86 "Hg4 mi
4:00 PM79 °FSandstorm.18 mph65%29.86 "Hg4 mi
3:00 PM79 °FSandstorm.21 mph70%29.89 "Hg4 mi
2:00 PM81 °FClear.20 mph66%29.92 "Hg4 mi
1:00 PM86 °FClear.12 mph59%29.92 "Hg4 mi
12:00 PM82 °FClear.12 mph62%29.95 "Hg4 mi
11:00 AM81 °FClear.12 mph66%29.95 "Hg4 mi
10:00 AM77 °FClear.9 mph74%29.98 "Hg4 mi
9:00 AM75 °FClear.6 mph78%29.95 "Hg4 mi
Weather by CustomWeather, © 2016

See weather overviewHow to use our weather pages